TimeEAT,TemperatureF,Dew PointF,Humidity,Sea Level PressureIn,VisibilityMPH,Wind Direction,Wind SpeedMPH,Gust SpeedMPH,PrecipitationIn,Events,Conditions,WindDirDegrees,DateUTC
12:30 AM,77.0,69.8,78,29.95,6.2,SSE,5.8,-,N/A,,Partly Cloudy,160,2013-10-18 21:30:00
3:00 AM,73,70,86,29.92,16,Calm,Calm,,,,Scattered Clouds,,2013-10-19 00:00:00
6:00 AM,71.6,68.0,88,29.95,6.2,WSW,3.5,-,N/A,,Partly Cloudy,240,2013-10-19 03:00:00
7:00 AM,73.4,69.8,88,29.98,6.2,WSW,6.9,-,N/A,,Partly Cloudy,240,2013-10-19 04:00:00
8:00 AM,77.0,71.6,83,30.01,6.2,SW,8.1,-,N/A,,Partly Cloudy,230,2013-10-19 05:00:00
9:00 AM,,70,,30.01,0,NNE,78.3,,,,Mostly Cloudy,20,2013-10-19 06:00:00
9:00 AM,80.6,69.8,70,30.01,6.2,South,5.8,-,N/A,,Mostly Cloudy,180,2013-10-19 06:00:00
10:00 AM,84.2,69.8,62,30.01,6.2,ESE,11.5,-,N/A,,Mostly Cloudy,120,2013-10-19 07:00:00
11:00 AM,84.2,69.8,62,30.01,6.2,SSE,11.5,-,N/A,,Mostly Cloudy,150,2013-10-19 08:00:00
12:00 PM,84.2,68.0,58,29.98,6.2,SE,13.8,-,N/A,,Scattered Clouds,140,2013-10-19 09:00:00
1:00 PM,86.0,68.0,55,29.95,6.2,South,11.5,-,N/A,,Partly Cloudy,170,2013-10-19 10:00:00
2:00 PM,84.2,68.0,58,29.92,6.2,SE,20.7,-,N/A,,Partly Cloudy,140,2013-10-19 11:00:00
3:00 PM,85,68,48,29.91,19,SSE,20.7,,,,Scattered Clouds,160,2013-10-19 12:00:00
3:00 PM,84.2,68.0,58,29.92,6.2,SSE,20.7,-,N/A,,Partly Cloudy,160,2013-10-19 12:00:00
4:00 PM,84.2,66.2,55,29.89,6.2,SSE,11.5,-,N/A,,Partly Cloudy,150,2013-10-19 13:00:00
5:00 PM,82.4,68.0,62,29.89,6.2,South,6.9,-,N/A,,Partly Cloudy,180,2013-10-19 14:00:00
6:00 PM,80.6,68.0,65,29.92,6.2,South,12.7,-,N/A,,Partly Cloudy,170,2013-10-19 15:00:00
7:00 PM,78.8,71.6,78,29.92,6.2,SSE,10.4,-,N/A,,Partly Cloudy,150,2013-10-19 16:00:00
8:00 PM,77.0,71.6,83,29.95,6.2,SSW,4.6,-,N/A,,Partly Cloudy,200,2013-10-19 17:00:00
9:00 PM,77,71,78,29.95,19,SSE,4.6,,,,Scattered Clouds,160,2013-10-19 18:00:00
9:00 PM,77.0,71.6,83,29.95,6.2,SSE,4.6,-,N/A,,Partly Cloudy,160,2013-10-19 18:00:00
10:00 PM,77.0,71.6,83,29.98,6.2,South,3.5,-,N/A,,Partly Cloudy,190,2013-10-19 19:00:00
11:00 PM,73.4,69.8,88,29.98,6.2,SW,3.5,-,N/A,,Partly Cloudy,220,2013-10-19 20:00:00